[[{"header":{"parameterUnit":"m.s-1","parameterCategory":1,"la1":30.2991,"la2":30.254,"lo1":-89.0895,"lo2":-89.0444,"dy":0.0017,"dx":0.0017,"nx":28,"ny":28,"refTime":"2025-06-13T03:00:00:Z","depth":0,"parameterNumber":2,"parameterNumberName":"U-component_of_WINDS"},"data":[0,0,0,0,0,0,0,0,0,0,0,0,0,0,0,0,0,0,0,0,0,0,0,0,0,0,0,0,0,0,0,0,0,0,0,0,0,0,0,0,0,0,0,0,0,0,0,0,0,0,0,0,0,0,0,0,0,0,0.3556,0.3557,0,0.3705,0.3707,0.3708,0.3792,0.3792,0.3792,0.3792,0.3946,0.395,0.3954,0,0,0,0,0,0,0,0,0,0,0,0,0,0.3345,0.3349,0.3556,0.3558,0.3559,0.3705,0.3707,0.3709,0.3792,0.3792,0.3792,0.3792,0.3945,0.395,0.3954,0,0,0,0,0,0,0,0,0,0,0,0,0,0.346,0.335,0.3555,0.3618,0.3625,0.3704,0.3707,0.3709,0.3791,0.3792,0.3792,0.3793,0.3944,0.3949,0.3955,0.3983,0,0,0.3973,0.3975,0,0,0,0,0,0,0,0,0.3453,0.3467,0.3607,0.3614,0.3622,0.373,0.3689,0.3801,0.3791,0.3728,0.3792,0.3793,0.3874,0.3886,0.3913,0.3991,0.3997,0.3973,0.3977,0.3979,0.3981,0,0,0,0,0,0,0,0.3445,0.3461,0.3615,0.3609,0.3618,0.364,0.3656,0.3711,0.3797,0.3734,0.374,0.3757,0.3878,0.3907,0.3917,0.4,0.3973,0.3978,0.3982,0.3984,0.411,0.411,0,0,0,0,0,0,0.3427,0.3454,0.361,0.3619,0.3537,0.3643,0.3662,0.3695,0.3797,0.3813,0.3756,0.376,0.3897,0.391,0.3923,0.3965,0.3979,0.3985,0.3988,0.411,0.411,0.411,0,0,0,0,0,0,0.3422,0.344,0.3604,0.3539,0.3561,0.3646,0.3683,0.3698,0.3727,0.3814,0.383,0.377,0.3898,0.3915,0.3968,0.3971,0.3987,0.3993,0.4111,0.411,0.411,0.4047,0,0,0,0,0,0,0.3415,0.3438,0.3449,0.3538,0.3564,0.3646,0.3683,0.37,0.3736,0.3743,0.3831,0.3846,0.3899,0.3959,0.3974,0.3979,0.3997,0.4111,0.4111,0.411,0.4049,0.4044,0.404,0,0,0,0,0,0.3408,0.3425,0.3449,0.3467,0.358,0.3646,0.3661,0.3722,0.3736,0.3749,0.3805,0.3843,0.3968,0.3964,0.3981,0.3988,0.4111,0.4111,0.411,0.4051,0.4045,0.4041,0,0,0,0,0,0,0.3333,0.3437,0.3465,0.3512,0.3569,0.366,0.3677,0.3714,0.3769,0.3773,0.3847,0.3866,0.3913,0.3956,0.3949,0.4022,0.4044,0.4047,0.3993,0.3988,0.3984,0.3973,0.4002,0,0,0,0,0,0.3322,0.3366,0.3455,0.3488,0.3515,0.3591,0.3622,0.3664,0.3727,0.3752,0.3812,0.3872,0.3926,0.3959,0.4013,0.4055,0.4077,0.4069,0.4065,0.4061,0.4063,0.4091,0.4089,0.4109,0.4109,0.4109,0,0,0.33,0.3362,0.3386,0.3474,0.3524,0.3569,0.3611,0.3657,0.3691,0.3759,0.3814,0.386,0.3932,0.398,0.4005,0.4018,0.4062,0.406,0.4057,0.4061,0.409,0.4088,0.4087,0.4109,0.4109,0.4109,0,0,0.3282,0.3333,0.3367,0.3416,0.3491,0.3541,0.3549,0.3634,0.3668,0.3723,0.3776,0.3818,0.3908,0.3958,0.3995,0.3997,0.4035,0.4013,0.3991,0.4017,0.4015,0.4014,0.4017,0.4017,0.4014,0.4014,0.4014,0,0.3245,0.3315,0.3379,0.3423,0.3461,0.3524,0.3559,0.3604,0.3692,0.3718,0.3731,0.3846,0.3898,0.3961,0.3961,0.3988,0.4001,0.4003,0.401,0.401,0.401,0.4013,0.4014,0.4011,0.4012,0.4012,0.4012,0,0.3267,0.3314,0.3333,0.3417,0.3457,0.3496,0.3567,0.36,0.3639,0.3688,0.3745,0.3811,0.3879,0.3897,0.3935,0.3965,0.3971,0.3996,0.4019,0.4004,0.4009,0.401,0.4007,0.4008,0.4009,0.401,0,0,0.3207,0.3326,0.3332,0.3372,0.3459,0.3498,0.354,0.3607,0.3635,0.3694,0.3733,0.3807,0.3832,0.3873,0.3918,0.3941,0.3941,0.3964,0.3967,0.3958,0.398,0.3961,0.3962,0.3966,0.3966,0.3967,0.3974,0,0.3203,0.3282,0.3342,0.3398,0.3444,0.3505,0.3543,0.3601,0.3648,0.3695,0.3748,0.38,0.3827,0.3853,0.3878,0.3935,0.3946,0.3935,0.4004,0.4005,0.3985,0.3964,0.3944,0.3948,0.3976,0.3977,0.3977,0,0.3209,0.3267,0.3328,0.3412,0.3434,0.3466,0.3533,0.3577,0.3644,0.3678,0.3725,0.3771,0.382,0.3837,0.3906,0.3898,0.3929,0.3961,0.3963,0.3973,0.3991,0.3974,0.3951,0.3952,0.398,0.398,0.398,0,0.3161,0.3254,0.3303,0.3335,0.3434,0.3455,0.3498,0.3566,0.3603,0.3662,0.3687,0.3751,0.3786,0.3834,0.3897,0.3904,0.396,0.3983,0.399,0.3989,0.4,0.3999,0.3983,0.4018,0.4018,0.4018,0.4018,0,0.3152,0.3187,0.3283,0.3313,0.3355,0.3424,0.3464,0.3511,0.3572,0.3613,0.367,0.3707,0.3787,0.3835,0.3884,0.3935,0.395,0.3979,0.3992,0.3975,0.3971,0.3997,0.3999,0.4018,0.4018,0.4018,0.4018,0,0.3106,0.3171,0.3229,0.3318,0.3342,0.3369,0.3446,0.3478,0.3529,0.3581,0.3597,0.3677,0.3736,0.3803,0.3884,0.3917,0.3965,0.3983,0.3942,0.395,0.3954,0.3953,0.3955,0.396,0.399,0.3989,0.3989,0,0.3096,0.3125,0.3218,0.325,0.3291,0.3341,0.3379,0.3448,0.3486,0.3566,0.3589,0.3653,0.3707,0.3799,0.3865,0.3928,0.3949,0.3945,0.3959,0.3941,0.3951,0.3949,0.3953,0.3942,0.3941,0.394,0.394,0,0.3073,0.3104,0.3157,0.3221,0.3266,0.332,0.3377,0.3399,0.348,0.352,0.3581,0.3623,0.3707,0.377,0.3841,0.3886,0.3927,0.3935,0.394,0.3924,0.39,0.3915,0.3933,0.3935,0.3935,0.3936,0.3936,0.3936,0.3046,0.3075,0.3145,0.3203,0.3253,0.3305,0.334,0.3395,0.3448,0.3521,0.3559,0.362,0.3689,0.3789,0.3832,0.3882,0.3895,0.3902,0.3905,0.3906,0.3902,0.389,0.3895,0.3895,0.3895,0.3895,0.3896,0,0.3027,0.3075,0.3127,0.3205,0.3251,0.3285,0.335,0.3386,0.3439,0.35,0.3552,0.3624,0.3685,0.3756,0.3822,0.3849,0.3869,0.3864,0.3863,0.3873,0.3885,0.3875,0.3846,0.3846,0.3846,0.3846,0.3846,0.3846,0.3022,0.3074,0.3113,0.3191,0.324,0.33,0.3335,0.3383,0.3432,0.3509,0.3561,0.3606,0.3672,0.3743,0.3802,0.3821,0.3844,0.3833,0.3858,0.3868,0.3872,0.3876,0.3867,0.3837,0.3837,0.3842,0.3842,0.3842]},{"header":{"parameterUnit":"m.s-1","parameterCategory":1,"la1":30.2991,"la2":30.254,"lo1":-89.0895,"lo2":-89.0444,"dy":0.0017,"dx":0.0017,"nx":28,"ny":28,"refTime":"2025-06-13T03:00:00:Z","depth":0,"parameterNumber":3,"parameterNumberName":"V-component_of_WINDS"},"data":[0,0,0,0,0,0,0,0,0,0,0,0,0,0,0,0,0,0,0,0,0,0,0,0,0,0,0,0,0,0,0,0,0,0,0,0,0,0,0,0,0,0,0,0,0,0,0,0,0,0,0,0,0,0,0,0,0,0,3.1466,3.1465,0,3.1388,3.1387,3.1387,3.1379,3.138,3.138,3.1381,3.1297,3.1294,3.1291,0,0,0,0,0,0,0,0,0,0,0,0,0,3.1603,3.1601,3.1466,3.1465,3.1464,3.1389,3.1387,3.1386,3.1379,3.138,3.1381,3.1382,3.1298,3.1294,3.129,0,0,0,0,0,0,0,0,0,0,0,0,0,3.1536,3.16,3.1466,3.1451,3.1449,3.1389,3.1387,3.1386,3.1378,3.138,3.1381,3.1382,3.1299,3.1294,3.129,3.1237,0,0,3.1276,3.1274,0,0,0,0,0,0,0,0,3.154,3.1531,3.1454,3.1452,3.145,3.1395,3.1405,3.1336,3.1378,3.1405,3.1381,3.1383,3.1328,3.1321,3.1304,3.1233,3.123,3.1276,3.1273,3.1271,3.127,0,0,0,0,0,0,0,3.1545,3.1534,3.1435,3.1453,3.145,3.1447,3.1439,3.1392,3.136,3.1403,3.1402,3.1393,3.1327,3.1308,3.1302,3.1229,3.1276,3.1272,3.1269,3.1267,3.1111,3.111,0,0,0,0,0,0,3.1553,3.1538,3.1438,3.1433,3.1499,3.1443,3.1434,3.1411,3.1361,3.1355,3.1392,3.1393,3.1315,3.1307,3.1299,3.1233,3.1271,3.1267,3.1264,3.1112,3.1111,3.1109,0,0,0,0,0,0,3.1556,3.1544,3.1441,3.1485,3.1472,3.144,3.1414,3.1409,3.139,3.1353,3.1347,3.1379,3.1316,3.1305,3.1253,3.123,3.1265,3.1261,3.1114,3.1112,3.111,3.1103,0,0,0,0,0,0,3.156,3.1545,3.1526,3.1485,3.147,3.1398,3.1412,3.1406,3.1383,3.1383,3.1339,3.1333,3.1316,3.126,3.1248,3.1225,3.1257,3.1116,3.1113,3.1111,3.1105,3.1101,3.1097,0,0,0,0,0,3.1565,3.1526,3.1525,3.1513,3.1445,3.1397,3.1388,3.137,3.1381,3.1361,3.1337,3.1334,3.1235,3.1254,3.1242,3.1216,3.1117,3.1114,3.1111,3.1107,3.1102,3.1098,0,0,0,0,0,0,3.1563,3.152,3.1519,3.1466,3.1435,3.1395,3.1369,3.1365,3.133,3.1331,3.131,3.13,3.1249,3.1227,3.125,3.1163,3.1177,3.1171,3.1178,3.1173,3.1169,3.1175,3.1253,0,0,0,0,0,3.1557,3.1522,3.1486,3.1443,3.1428,3.1401,3.1379,3.1369,3.1336,3.1322,3.1294,3.1261,3.1222,3.1196,3.1159,3.1102,3.1092,3.1079,3.1075,3.1072,3.1066,3.1035,3.1028,3.1098,3.1099,3.1099,0,0,3.1543,3.1515,3.1495,3.1442,3.1417,3.138,3.139,3.1351,3.1323,3.1315,3.1265,3.1244,3.1204,3.115,3.1125,3.1131,3.1045,3.1068,3.1066,3.1062,3.1031,3.1024,3.1018,3.1096,3.1097,3.1097,0,0,3.1499,3.1475,3.1437,3.1412,3.1374,3.1357,3.1348,3.1309,3.1295,3.1244,3.1237,3.1203,3.1137,3.1109,3.1087,3.1033,3.1029,3.1021,3.1,3.0969,3.0964,3.0959,3.0939,3.0932,3.1016,3.1016,3.1016,0,3.1486,3.1432,3.1417,3.1378,3.1355,3.1348,3.1308,3.1284,3.1235,3.1218,3.1227,3.1144,3.1117,3.1055,3.1043,3.1025,3.1012,3.1026,3.0966,3.0961,3.0956,3.0937,3.0929,3.1015,3.1016,3.1016,3.1016,0,3.1417,3.138,3.1353,3.1309,3.1282,3.1243,3.122,3.1195,3.1187,3.1169,3.1117,3.1085,3.104,3.1025,3.1016,3.0962,3.0967,3.0971,3.0985,3.0949,3.093,3.0923,3.1014,3.1015,3.1015,3.1015,0,0,3.1369,3.1317,3.1308,3.1287,3.1246,3.1216,3.1176,3.1134,3.1113,3.1079,3.1044,3.0989,3.0992,3.0967,3.0954,3.0928,3.0886,3.0934,3.0933,3.0926,3.0824,3.0821,3.0813,3.0884,3.0882,3.0881,3.0827,0,3.132,3.125,3.1236,3.1175,3.1139,3.1133,3.1098,3.1068,3.1049,3.1016,3.0995,3.0956,3.0964,3.0948,3.0921,3.0897,3.0865,3.0901,3.0849,3.0848,3.0859,3.0803,3.08,3.075,3.082,3.0819,3.0818,0,3.1253,3.122,3.1156,3.112,3.1104,3.1073,3.1034,3.1002,3.0968,3.0956,3.0928,3.0919,3.0875,3.0892,3.0832,3.0856,3.0834,3.0819,3.0817,3.0811,3.083,3.0795,3.0734,3.0727,3.0806,3.0807,3.0808,0,3.1223,3.1163,3.1117,3.11,3.1056,3.1034,3.1015,3.0982,3.0957,3.0922,3.0906,3.0866,3.0844,3.0812,3.0792,3.0807,3.0733,3.0748,3.0721,3.0721,3.0705,3.0706,3.0639,3.0692,3.0692,3.0692,3.0693,0,3.1169,3.113,3.1103,3.1074,3.103,3.1013,3.0969,3.095,3.092,3.0887,3.0878,3.0847,3.0823,3.0787,3.0771,3.0723,3.0713,3.0702,3.0697,3.0702,3.0703,3.0686,3.0689,3.069,3.0691,3.0691,3.0692,0,3.1128,3.1108,3.1058,3.1021,3.1011,3.098,3.0948,3.0919,3.0901,3.0859,3.0848,3.0819,3.0777,3.0754,3.0701,3.069,3.0636,3.0635,3.0648,3.0647,3.062,3.0623,3.054,3.0528,3.059,3.0589,3.0589,0,3.1094,3.1064,3.1025,3.1003,3.0984,3.0948,3.0924,3.0906,3.0881,3.0839,3.0815,3.0774,3.0739,3.0672,3.0645,3.0604,3.0601,3.0575,3.0595,3.06,3.06,3.0601,3.0598,3.0571,3.057,3.057,3.0569,0,3.1036,3.1028,3.0995,3.0958,3.093,3.0899,3.0869,3.0851,3.0828,3.08,3.0758,3.0731,3.0678,3.0636,3.0593,3.0571,3.0566,3.0564,3.0555,3.0559,3.0568,3.0562,3.0638,3.0565,3.0566,3.0566,3.0566,3.0566,3.0997,3.097,3.0939,3.0902,3.0878,3.085,3.0821,3.08,3.0765,3.0722,3.0713,3.0668,3.0634,3.0577,3.0554,3.0517,3.0522,3.051,3.0507,3.0504,3.0502,3.0575,3.051,3.051,3.051,3.051,3.051,0,3.0938,3.0918,3.0884,3.0843,3.0814,3.0814,3.078,3.0755,3.0716,3.0686,3.0652,3.0604,3.0563,3.0534,3.0492,3.0468,3.0465,3.0458,3.0459,3.0454,3.0501,3.0512,3.0462,3.0462,3.0462,3.0462,3.0462,3.0462,3.0904,3.0859,3.0847,3.0789,3.0769,3.0726,3.0707,3.0681,3.0657,3.0603,3.057,3.0552,3.0521,3.0477,3.044,3.0432,3.0417,3.041,3.0402,3.0446,3.0451,3.0455,3.0466,3.0407,3.0407,3.0358,3.0357,3.0357]}]]